Flag for U.S.A. Weather past 2 weeks in Los Angeles, California, U.S.A.

Now
56 °F

Fog.


Feels Like: 56 °F
Forecast: 51 / 74 °F
Wind: No wind

Location: Los Angeles / USC Campus Downtown

Current Time: Dec 22, 2014 at 12:15:29 AM

Latest Report: Dec 21, 2014 at 11:47 PM


Visibility: 4 mi

Pressure: 30.05 "Hg

Humidity: 87%

Dew point: 52 °F

Location of Los AngelesLocation

Historic Weather in Los Angeles — Graph

°F

Los Angeles temperature yesterday

Maximum temperature yesterday: 68 °F (at 1:47 PM)
Minimum temperature yesterday: 50 °F (at 5:47 AM)
Average temperature yesterday: 58 °F

Past Weeks' High & Low Weather Summary

 TemperatureHumidityPressure
High78 °F (Dec 8, 1:47 PM)93% (Dec 12, 4:04 AM)30.23 "Hg (Dec 12, 4:04 AM)
Low47 °F (Dec 14, 6:47 AM)32% (Dec 8, 1:47 PM)29.82 "Hg (Dec 12, 2:47 AM)
Average59 °F71%30.05 "Hg
* Reported Dec 6 10:47 PM — Dec 21 10:47 PM, Los Angeles, Weather by CustomWeather, © 2014

Note: Actual official high and low records may vary slightly from our data, if they occured in-between our weather recording intervals... More about our weather records

Advertising

Los Angeles weather history for previous 24 hours

 ConditionsComfort  
Time TempWeatherWind HumidityBarometerVisibility
10:47 PM
Dec 21
56 °FFog.No wind87%30.05 "Hg4 mi
9:47 PM57 °FFog.No wind87%30.05 "Hg4 mi
8:47 PM59 °FClear.No wind84%30.05 "Hg5 mi
7:47 PM60 °FClear.No wind80%30.05 "Hg5 mi
6:47 PM60 °FClear.No wind80%30.04 "Hg6 mi
5:47 PM61 °FClear.No wind78%30.03 "Hg6 mi
4:47 PM62 °FClear.No wind75%30.04 "Hg5 mi
3:47 PM64 °FSunny.No wind70%30.04 "Hg6 mi
2:47 PM67 °FSunny.No wind61%30.03 "Hg8 mi
1:47 PM68 °FSunny.No wind53%30.03 "Hg7 mi
12:47 PM67 °FSunny.No wind55%30.06 "Hg7 mi
11:47 AM64 °FSunny.No wind63%30.10 "Hg6 mi
10:47 AM62 °FSunny.No wind65%30.13 "Hg6 mi
9:47 AM60 °FSunny.3 mph62%30.15 "Hg7 mi
8:47 AM56 °FSunny.No wind75%30.15 "Hg3 mi
7:47 AM53 °FSunny.No wind80%30.13 "Hg4 mi
6:47 AM50 °FFog.No wind86%30.13 "Hg5 mi
5:47 AM50 °FFog.No wind86%30.12 "Hg5 mi
4:47 AM52 °FClear.No wind80%30.12 "Hg6 mi
3:47 AM52 °FClear.No wind83%30.11 "Hg6 mi
2:47 AM55 °FClear.No wind74%30.13 "Hg7 mi
1:47 AM56 °FClear.3 mph72%30.13 "Hg7 mi
12:47 AM53 °FClear.No wind83%30.14 "Hg6 mi
Weather by CustomWeather, © 2014

See weather overviewHow to use our weather pages